Wetbulb
55.20 55.91 55.80 55.81 55.78 55.56 55.38 55.18 54.78 54.68 54.65 54.64 54.82 56.01 57.35 57.76 57.82 57.99 57.59 56.63 55.40 52.81 53.28 54.19 54.86 54.67 44.64 35.43 35.79 44.12 52.70 50.81 50.93 51.08 50.71 48.29 44.40 43.09 40.23 38.85 39.06 34.48 35.15 35.98 35.10 33.25 31.23
55.00 55.33 55.47 55.33 55.36 55.14 54.97 54.83 54.39 54.19 54.20 54.15 54.19 53.97 55.67 56.87 56.43 57.42 56.85 55.75 54.40 54.62 56.01 55.75 56.35 53.59 40.61 32.83 42.99 44.41 44.69 47.75 47.46 50.64 46.10 46.56 45.54 45.38 41.12 38.32 37.29 36.95 35.82 35.57 36.36 34.34 32.31
55.14 55.04 55.12 54.89 54.88 54.65 54.42 54.37 54.07 53.75 53.72 53.59 53.71 53.14 53.45 54.70 55.80 56.00 55.35 53.81 53.23 53.71 52.71 53.38 54.63 43.93 35.98 35.07 41.96 42.49 43.52 45.59 45.54 46.01 44.08 44.41 45.64 44.54 40.72 36.20 39.01 36.83 32.06 33.75 34.06 34.53 31.95
55.32 54.81 54.87 54.58 54.36 54.25 54.03 53.89 53.71 53.32 53.22 53.13 52.78 52.55 52.23 53.21 54.69 55.66 54.74 53.92 52.59 52.61 53.19 53.73 53.71 38.47 32.00 42.13 40.63 42.50 42.59 43.98 44.33 45.31 44.37 45.34 47.25 44.07 40.50 40.02 37.74 32.80 31.43 26.89 32.31 33.74 32.51
55.47 54.80 54.68 54.45 54.08 53.97 53.57 53.45 53.37 53.01 52.71 52.55 52.03 51.81 51.63 52.67 53.74 54.09 54.12 53.39 52.79 54.00 54.72 53.64 40.52 36.40 31.13 46.29 39.44 41.06 40.49 40.05 42.05 45.24 44.53 45.80 45.25 39.87 38.94 33.18 30.01 29.09 24.00 26.01 26.85 32.87 31.86
55.75 55.10 54.56 54.24 53.83 53.61 53.20 52.90 52.89 52.67 52.32 52.08 51.40 51.86 51.28 52.04 52.28 52.08 52.36 52.74 51.82 46.66 44.57 45.32 41.11 34.33 35.90 34.47 38.70 40.67 39.65 40.75 40.39 41.45 40.74 38.01 35.64 33.38 33.23 28.59 22.20 25.70 26.12 26.20 25.14 28.05 29.16
56.15 55.37 54.82 54.29 53.79 53.33 52.90 52.48 52.48 52.22 51.80 51.61 50.59 51.81 51.58 51.80 52.06 51.94 45.40 41.70 37.82 36.75 36.14 31.79 32.48 33.13 35.63 38.59 41.35 38.30 38.56 38.64 40.47 35.36 29.03 31.19 28.85 27.86 29.19 26.71 25.94 25.10 24.12 22.42 24.12 27.95 24.73
56.75 55.95 55.19 54.46 54.08 53.60 52.90 52.04 51.83 51.59 51.11 51.11 49.84 52.11 50.62 50.60 50.82 51.53 43.67 37.83 36.67 36.97 30.74 36.41 36.06 35.59 37.10 37.52 34.30 36.76 38.49 34.99 34.21 27.33 28.69 26.80 22.55 25.10 29.04 28.15 26.21 24.27 20.17 18.91 23.41 26.39 23.43
57.36 56.62 55.71 55.04 54.42 53.91 53.26 52.04 51.39 50.87 50.26 50.04 50.44 51.76 50.96 51.29 51.22 44.52 40.82 38.71 43.06 40.97 31.88 33.32 35.91 34.40 34.49 36.64 30.62 31.77 34.73 32.53 29.65 26.18 24.53 22.77 23.81 28.85 27.73 24.91 24.47 20.23 19.33 19.64 19.46 22.83 22.63
58.62 57.32 56.56 55.62 54.87 54.16 53.65 52.36 51.33 50.54 49.57 49.54 49.45 49.67 50.02 50.86 43.90 39.96 38.87 42.36 44.15 42.02 26.62 29.36 31.95 33.82 35.84 35.16 29.52 35.78 35.21 31.52 29.68 24.82 24.08 22.32 25.92 25.97 24.60 24.12 22.90 20.18 22.31 23.06 22.10 16.88 15.78
59.14 58.16 57.64 56.85 55.54 54.71 53.96 52.77 51.72 50.60 49.17 49.38 49.82 49.52 49.57 48.80 38.02 38.15 40.84 42.86 43.92 39.08 23.01 30.99 31.69 38.13 35.63 31.46 30.89 31.68 35.15 31.86 25.54 24.97 24.22 22.08 23.06 22.83 23.26 23.42 24.93 21.16 24.12 22.04 20.90 16.47 13.63
59.45 58.75 58.06 57.20 56.44 55.74 54.46 53.25 52.08 50.74 48.91 49.55 48.69 48.93 48.69 41.62 40.92 40.50 43.36 44.54 41.29 29.56 20.85 27.31 30.99 29.50 29.05 30.28 30.02 31.71 30.59 31.93 30.36 25.64 24.36 22.13 26.13 24.68 23.73 24.65 24.77 25.73 21.46 20.69 17.39 14.77 5.36
59.63 59.17 58.39 57.61 56.64 55.96 55.23 53.67 52.40 50.91 49.16 48.53 48.01 48.65 44.56 44.22 38.71 43.87 44.05 40.02 30.09 25.52 29.62 26.20 26.25 28.39 27.19 25.41 26.82 27.14 25.39 23.00 22.26 19.85 19.02 20.91 22.00 24.34 26.82 22.46 25.45 23.38 18.99 13.74 10.64 8.16 10.70
59.76 59.26 58.66 57.93 57.16 56.16 55.53 54.29 52.60 51.30 49.64 48.45 47.48 45.17 42.79 40.97 41.37 42.48 40.24 33.73 26.39 28.83 25.58 28.67 27.62 26.68 24.42 25.16 24.50 24.95 22.12 20.65 23.05 22.39 17.54 17.02 17.95 21.10 25.97 23.14 22.26 21.79 21.61 18.10 11.82 8.62 10.66
59.73 59.23 58.76 58.14 57.40 56.52 55.80 54.60 52.66 52.01 50.71 48.24 46.56 38.86 37.90 37.91 40.81 40.24 35.47 28.84 28.85 25.84 29.12 26.84 26.18 22.08 21.54 23.95 22.60 22.10 19.85 20.83 23.32 24.17 18.42 15.02 17.94 21.92 23.68 24.90 24.79 20.45 18.45 23.79 17.34 15.38 6.58
59.27 59.20 58.84 58.38 57.83 56.93 55.74 54.16 53.04 51.97 51.16 47.99 38.48 34.61 34.64 37.96 38.12 38.24 33.68 33.36 27.72 31.60 29.88 27.68 23.02 24.01 20.38 20.77 19.83 18.89 20.48 24.09 23.59 25.17 25.26 19.62 13.24 19.52 21.48 23.71 23.49 22.61 23.26 15.04 17.39 12.45 7.92
56.46 56.51 58.40 58.68 57.99 56.63 55.61 54.34 52.93 51.27 50.78 47.61 38.13 36.53 35.89 37.18 37.30 32.87 29.45 28.80 29.16 31.76 32.33 27.91 23.96 23.16 22.35 21.16 19.57 18.57 21.49 22.73 24.43 23.83 25.00 21.98 17.77 14.48 18.58 17.51 17.49 17.99 16.89 18.36 18.60 17.29 12.74
55.63 55.52 55.83 57.69 57.53 56.27 55.29 54.43 52.80 51.59 49.95 42.97 37.07 37.22 36.83 38.67 32.25 31.65 28.48 30.80 34.11 29.04 31.49 29.03 26.63 24.71 23.08 23.29 21.65 20.47 21.02 23.70 26.44 25.28 21.67 22.48 15.19 9.81 14.30 15.93 19.12 17.50 16.34 16.20 14.50 12.65 12.70
54.43 53.64 54.72 54.88 56.27 55.82 54.97 53.77 52.04 50.74 46.49 41.27 36.77 34.11 38.44 36.97 31.93 28.01 29.67 29.68 29.43 27.70 27.24 27.46 27.13 26.35 24.01 23.43 21.49 22.68 21.69 24.45 24.07 22.73 19.56 20.05 13.12 7.03 12.38 11.11 14.74 14.06 15.13 15.84 13.87 10.51 6.40
52.96 52.13 53.13 53.88 53.84 55.47 54.38 52.94 51.49 50.01 47.22 41.39 36.33 33.76 32.91 33.53 30.81 29.59 27.85 27.99 27.93 29.32 27.53 27.28 25.04 24.35 21.87 20.38 22.29 20.83 22.55 22.25 23.11 22.66 29.13 23.86 8.00 13.28 17.61 15.26 10.75 7.72 14.20 17.49 17.73 7.29 11.04
51.01 51.33 52.23 52.74 53.41 54.97 54.05 52.69 51.09 49.99 47.62 44.05 38.68 35.32 33.31 27.80 27.15 28.26 32.86 32.24 25.98 26.11 27.88 26.63 23.98 23.95 18.88 22.42 17.39 18.37 19.40 18.02 20.40 25.13 21.62 19.33 7.45 8.87 10.40 10.96 13.41 14.85 14.05 15.37 14.47 16.31 13.00
49.56 50.43 51.38 52.48 52.91 54.85 53.87 52.03 50.43 48.93 47.81 41.34 35.77 33.87 32.43 30.06 30.31 29.69 31.95 30.00 29.87 28.25 28.75 24.89 22.30 23.20 24.04 24.93 22.27 23.54 18.80 15.70 17.59 17.14 16.25 15.08 10.14 8.02 7.70 12.25 13.97 12.08 12.77 15.91 15.96 16.42 16.57
49.02 49.63 51.18 53.10 54.57 54.49 52.89 51.30 50.28 47.63 46.67 38.99 37.21 36.78 38.03 32.22 29.50 28.76 28.85 30.64 30.82 28.98 27.13 27.40 21.61 23.29 20.25 23.52 21.23 17.81 17.40 17.07 18.98 15.93 16.49 15.56 13.10 11.53 9.67 5.41 4.49 5.77 10.69 12.72 16.13 17.65 18.67
48.53 49.89 51.38 54.95 55.13 53.74 51.77 50.32 49.06 48.71 45.69 41.02 38.69 38.72 35.15 30.41 30.40 30.42 31.25 30.69 31.14 29.60 30.58 25.80 25.97 25.06 21.42 21.08 21.02 18.43 13.13 10.69 10.79 9.01 15.34 14.25 13.55 14.34 7.65 3.31 0.19 10.59 0.98 5.99 12.29 11.09 9.19
48.13 49.24 50.94 54.72 54.52 53.20 51.20 50.21 49.12 48.82 45.35 40.18 39.16 38.70 35.21 31.18 31.41 30.84 29.90 31.28 28.89 27.75 26.86 25.66 20.92 19.99 22.66 25.24 19.48 10.24 9.31 7.97 4.60 8.62 11.66 12.26 14.48 11.13 8.63 -1.05 6.81 8.78 4.93 4.67 6.15 5.36 -1.65
47.87 48.67 49.78 52.42 53.66 52.49 51.21 50.62 49.62 48.52 45.93 40.18 39.17 41.22 37.47 32.96 30.21 30.73 31.21 30.09 26.88 23.33 21.05 18.66 19.84 23.36 23.58 23.00 17.73 10.24 8.84 10.57 5.20 2.12 8.65 11.35 10.13 14.01 8.21 4.98 -0.46 3.95 4.44 0.40 0.30 1.14 3.53
47.80 47.76 48.39 49.68 52.34 51.83 51.09 50.36 49.56 48.33 46.93 40.66 37.30 39.59 38.16 32.78 28.33 28.08 30.29 29.30 28.46 22.32 15.75 13.09 13.64 16.12 18.79 14.44 14.17 9.08 6.79 7.10 5.18 0.18 -0.84 4.19 5.81 7.54 9.44 7.53 5.41 2.63 2.86 0.84 0.20 4.01 -0.61
48.12 47.75 47.74 47.98 49.18 51.52 50.71 50.09 49.82 49.91 47.56 41.34 32.48 35.15 35.95 31.64 24.51 24.28 25.16 28.34 26.70 21.79 17.47 15.10 17.24 13.15 13.16 11.73 12.79 10.84 7.73 7.54 2.54 0.41 1.11 4.04 4.81 3.74 7.92 5.30 -0.63 2.00 2.52 5.07 -0.01 -3.09 -0.57
48.27 47.92 47.73 47.88 47.92 48.43 50.63 50.87 50.53 50.38 47.92 40.63 32.65 33.21 30.74 29.29 21.42 22.28 21.69 22.54 21.45 19.87 22.15 19.35 17.46 14.28 19.47 14.22 15.20 17.88 13.23 11.00 4.63 5.26 3.95 5.64 11.04 7.85 10.03 7.82 1.19 3.03 4.01 3.52 2.89 3.19 3.28
MSLP
1021.32 1021.25 1021.32 1021.28 1021.23 1021.13 1021.15 1021.11 1021.00 1020.79 1020.62 1020.51 1020.35 1020.19 1020.08 1020.06 1019.95 1019.75 1019.69 1019.62 1019.62 1019.60 1019.56 1019.42 1019.21 1018.99 1018.90 1019.63 1020.42 1019.81 1019.23 1018.54 1017.91 1017.68 1017.80 1017.92 1018.02 1018.24 1019.27 1020.30 1021.32 1022.73 1023.80 1024.39 1025.04 1025.50 1026.67
1021.23 1021.35 1021.32 1021.33 1021.27 1021.25 1021.25 1021.20 1021.15 1020.96 1020.78 1020.70 1020.57 1020.43 1020.34 1020.26 1020.24 1020.21 1020.10 1020.00 1019.84 1019.68 1019.52 1019.38 1019.19 1018.96 1019.09 1020.12 1020.42 1020.06 1019.50 1018.74 1018.38 1018.08 1018.14 1018.12 1018.38 1018.52 1019.83 1021.08 1021.84 1023.01 1023.87 1024.71 1025.21 1025.90 1026.91
1021.11 1021.31 1021.38 1021.34 1021.29 1021.33 1021.33 1021.30 1021.28 1021.13 1020.93 1020.80 1020.71 1020.62 1020.53 1020.39 1020.29 1020.33 1020.37 1020.29 1020.04 1019.78 1019.57 1019.34 1019.17 1019.17 1020.00 1020.79 1020.44 1020.17 1019.65 1019.21 1018.99 1018.64 1018.63 1018.54 1018.46 1018.91 1020.22 1021.67 1022.81 1023.68 1024.67 1025.14 1025.63 1026.04 1026.88
1020.90 1021.12 1021.25 1021.30 1021.36 1021.45 1021.43 1021.37 1021.31 1021.19 1021.03 1020.93 1020.81 1020.71 1020.66 1020.53 1020.40 1020.30 1020.32 1020.28 1020.17 1019.94 1019.66 1019.42 1019.24 1019.47 1020.72 1020.60 1020.52 1020.28 1019.96 1019.44 1019.03 1018.88 1018.84 1018.70 1018.74 1019.54 1020.79 1022.17 1023.17 1024.10 1024.89 1025.60 1025.49 1026.03 1026.97
1020.72 1020.90 1021.05 1021.14 1021.26 1021.47 1021.54 1021.44 1021.37 1021.25 1021.08 1020.98 1020.85 1020.74 1020.69 1020.62 1020.52 1020.42 1020.30 1020.15 1020.02 1019.90 1019.63 1019.41 1019.43 1019.72 1020.95 1020.65 1020.89 1020.95 1020.81 1020.63 1019.90 1019.28 1019.03 1018.78 1019.15 1020.96 1022.05 1023.05 1024.14 1024.69 1025.13 1025.57 1025.77 1025.85 1026.75
1020.57 1020.66 1020.81 1021.06 1021.20 1021.34 1021.40 1021.45 1021.41 1021.28 1021.21 1021.14 1020.96 1020.80 1020.70 1020.68 1020.63 1020.54 1020.32 1020.15 1019.91 1019.76 1019.67 1019.41 1019.77 1020.65 1021.32 1021.78 1021.53 1021.43 1021.04 1020.81 1020.58 1020.16 1020.00 1020.24 1021.39 1022.43 1023.23 1023.88 1024.67 1024.80 1025.17 1025.28 1025.55 1026.07 1026.82
1020.34 1020.52 1020.67 1020.87 1021.09 1021.26 1021.35 1021.40 1021.39 1021.34 1021.27 1021.21 1021.06 1020.94 1020.74 1020.63 1020.57 1020.50 1020.35 1020.25 1020.75 1020.93 1021.18 1021.66 1021.82 1022.00 1022.04 1021.92 1021.59 1021.84 1021.78 1021.27 1020.92 1021.18 1021.76 1022.12 1022.76 1023.49 1023.77 1024.14 1024.39 1024.75 1025.30 1025.78 1026.06 1026.24 1027.02
1019.97 1020.25 1020.49 1020.69 1020.86 1021.11 1021.26 1021.32 1021.33 1021.31 1021.25 1021.19 1021.08 1020.95 1020.83 1020.70 1020.49 1020.40 1020.58 1021.12 1021.65 1021.92 1022.28 1022.25 1022.22 1022.36 1022.46 1022.57 1022.36 1022.37 1022.05 1022.05 1022.02 1022.57 1022.83 1023.47 1023.88 1024.23 1024.29 1024.45 1024.64 1024.99 1025.51 1026.17 1026.66 1026.96 1027.69
1019.52 1019.89 1020.17 1020.48 1020.69 1020.84 1021.06 1021.21 1021.23 1021.20 1021.23 1021.16 1021.07 1021.04 1020.93 1020.74 1020.57 1020.69 1021.12 1021.61 1021.66 1021.67 1022.23 1022.73 1022.64 1022.78 1022.86 1022.84 1023.53 1023.55 1023.28 1022.93 1023.00 1023.46 1024.14 1024.61 1025.14 1025.00 1025.07 1025.23 1025.48 1025.96 1026.17 1026.47 1027.00 1027.36 1027.85
1019.12 1019.38 1019.80 1020.21 1020.44 1020.62 1020.82 1021.02 1021.15 1021.13 1021.17 1021.12 1021.08 1021.12 1020.99 1020.73 1020.99 1021.27 1021.61 1021.68 1021.59 1021.69 1022.43 1023.22 1023.06 1023.14 1023.07 1023.09 1023.74 1023.66 1023.65 1023.81 1023.63 1024.24 1024.83 1025.42 1025.44 1025.49 1025.83 1026.33 1026.64 1027.08 1027.15 1027.35 1027.78 1028.51 1029.00
1018.66 1019.03 1019.27 1019.89 1020.12 1020.40 1020.61 1020.84 1021.07 1021.03 1021.07 1021.06 1021.10 1021.05 1020.93 1020.77 1021.35 1021.78 1022.14 1021.84 1021.57 1021.76 1022.76 1023.37 1023.25 1023.27 1023.20 1023.59 1024.07 1023.94 1023.62 1023.47 1024.24 1024.83 1025.29 1025.69 1025.86 1026.15 1026.45 1026.89 1027.00 1027.65 1027.92 1028.33 1028.85 1029.60 1030.26
1018.05 1018.43 1018.94 1019.39 1019.78 1020.15 1020.46 1020.71 1020.95 1021.02 1021.13 1021.08 1021.07 1021.01 1020.89 1021.19 1021.78 1022.31 1022.03 1021.96 1021.93 1022.28 1022.53 1023.07 1023.24 1023.40 1023.59 1023.95 1024.27 1024.32 1024.23 1024.09 1024.49 1025.28 1025.98 1026.41 1026.50 1026.60 1026.87 1027.29 1027.25 1027.68 1028.24 1028.91 1029.83 1030.60 1030.87
1017.50 1017.86 1018.34 1018.84 1019.36 1019.79 1020.21 1020.44 1020.78 1021.05 1021.11 1021.12 1021.16 1021.18 1021.16 1021.54 1022.39 1022.14 1022.01 1022.32 1022.50 1022.18 1022.71 1023.24 1023.34 1023.63 1023.97 1024.36 1024.56 1024.68 1024.84 1024.99 1025.28 1025.91 1026.57 1026.97 1027.11 1027.42 1027.41 1027.87 1028.20 1028.16 1028.61 1029.38 1030.26 1031.10 1030.24
1016.74 1017.30 1017.70 1018.20 1018.72 1019.32 1019.85 1020.11 1020.59 1020.84 1020.96 1021.16 1021.26 1021.30 1022.03 1022.45 1022.43 1022.12 1022.13 1022.53 1022.69 1022.31 1022.63 1023.05 1023.27 1023.64 1024.23 1024.81 1025.10 1025.18 1025.33 1025.48 1025.62 1025.96 1026.96 1027.31 1027.69 1027.89 1027.81 1027.96 1028.23 1028.70 1028.77 1029.22 1030.07 1030.79 1030.48
1016.01 1016.48 1016.78 1017.42 1018.06 1018.71 1019.41 1019.91 1020.29 1020.65 1020.94 1021.17 1021.44 1021.69 1022.37 1022.75 1022.58 1022.20 1022.22 1022.80 1022.50 1022.49 1022.65 1023.16 1023.61 1023.95 1024.55 1025.03 1025.45 1025.70 1025.83 1025.87 1025.73 1026.16 1026.79 1027.48 1028.14 1028.44 1028.66 1028.56 1028.57 1029.04 1029.19 1029.15 1029.90 1031.00 1031.33
1015.51 1015.76 1016.10 1016.69 1017.31 1017.96 1018.74 1019.48 1020.03 1020.39 1020.95 1021.09 1021.66 1022.37 1022.95 1022.84 1022.74 1022.44 1022.56 1022.68 1022.58 1022.60 1022.87 1023.13 1023.59 1023.89 1024.56 1025.27 1025.86 1026.06 1025.74 1025.79 1026.16 1026.34 1026.53 1027.65 1028.72 1029.33 1029.28 1029.33 1029.42 1029.22 1029.23 1029.79 1030.48 1031.26 1030.89
1015.17 1015.38 1015.49 1015.65 1016.31 1016.73 1017.94 1018.67 1019.76 1020.27 1020.90 1021.15 1021.83 1022.67 1023.27 1022.99 1022.91 1022.77 1023.06 1022.90 1022.75 1022.99 1023.09 1023.42 1023.68 1024.14 1024.75 1025.45 1026.11 1026.50 1026.10 1026.30 1026.44 1026.93 1027.02 1027.81 1028.96 1030.46 1030.24 1029.77 1029.33 1030.06 1029.86 1030.05 1030.32 1030.30 1030.30
1014.91 1015.17 1015.34 1015.37 1015.75 1016.50 1017.37 1018.27 1019.39 1019.87 1020.79 1021.34 1022.23 1023.20 1023.49 1022.91 1023.42 1023.43 1023.42 1023.08 1023.09 1023.35 1023.50 1023.79 1024.06 1024.43 1024.99 1025.51 1026.53 1026.99 1026.64 1026.53 1026.90 1027.29 1027.73 1028.09 1029.49 1030.32 1029.62 1029.73 1029.85 1029.79 1029.64 1029.70 1029.88 1029.68 1029.46
1014.60 1014.94 1015.26 1015.45 1015.52 1016.02 1016.91 1017.75 1018.80 1019.56 1020.37 1021.67 1023.01 1023.68 1023.52 1023.39 1023.72 1023.98 1023.74 1023.75 1023.77 1024.00 1024.21 1024.44 1024.62 1024.95 1025.54 1026.02 1026.87 1026.92 1027.01 1027.32 1027.72 1028.06 1028.40 1028.86 1030.03 1030.67 1030.45 1031.10 1030.86 1030.54 1029.88 1029.59 1029.69 1029.28 1028.54
1014.27 1014.71 1015.14 1015.31 1015.47 1015.60 1016.55 1017.50 1018.55 1019.40 1020.37 1021.22 1023.01 1023.67 1024.22 1024.31 1024.55 1024.32 1024.28 1024.14 1024.33 1024.51 1024.80 1025.08 1025.59 1026.07 1026.63 1026.89 1027.11 1027.58 1028.01 1028.27 1028.64 1028.80 1028.94 1029.59 1030.75 1031.03 1030.51 1030.24 1030.34 1030.58 1029.77 1029.29 1029.26 1029.03 1027.38
1014.41 1014.48 1014.70 1015.00 1015.22 1015.39 1015.88 1017.19 1018.23 1018.87 1019.95 1020.76 1022.43 1023.22 1023.59 1024.65 1024.92 1024.59 1024.66 1024.89 1025.07 1025.26 1025.75 1025.97 1026.27 1026.67 1027.58 1028.34 1028.55 1028.45 1028.91 1029.54 1029.71 1029.58 1030.38 1031.17 1031.50 1031.32 1030.61 1030.60 1030.41 1029.82 1029.49 1029.29 1028.76 1027.24 1026.89
1014.11 1014.30 1014.30 1014.57 1014.79 1015.01 1015.63 1016.50 1017.75 1018.79 1019.78 1021.04 1022.24 1022.96 1024.21 1024.58 1024.96 1025.22 1025.37 1025.24 1025.26 1025.90 1026.49 1026.77 1027.18 1027.39 1028.08 1028.55 1028.73 1029.52 1029.91 1031.00 1030.49 1031.18 1031.61 1032.35 1032.02 1032.14 1031.32 1030.83 1030.57 1029.58 1029.09 1028.37 1027.42 1026.67 1025.92
1014.09 1014.21 1014.08 1013.79 1013.83 1014.47 1015.58 1016.60 1017.48 1018.62 1019.36 1020.82 1022.21 1022.37 1022.50 1024.45 1025.03 1025.27 1025.05 1024.90 1025.14 1025.70 1026.26 1026.75 1027.48 1028.32 1029.05 1028.91 1029.45 1030.27 1030.61 1031.10 1031.28 1031.60 1032.54 1032.98 1032.91 1033.05 1031.65 1031.45 1031.30 1029.76 1027.53 1027.43 1026.89 1026.23 1026.03
1013.95 1014.00 1013.57 1012.86 1013.07 1014.28 1015.35 1016.53 1017.36 1018.17 1018.64 1019.45 1020.54 1021.60 1022.66 1023.75 1024.30 1024.40 1024.44 1025.04 1025.30 1025.95 1026.69 1027.68 1028.32 1029.04 1030.00 1030.07 1030.34 1030.95 1031.69 1032.37 1032.48 1032.68 1032.40 1032.84 1033.13 1033.22 1032.44 1032.49 1031.14 1027.66 1027.45 1027.73 1028.05 1028.01 1028.16
1014.19 1013.86 1013.49 1013.19 1013.44 1014.26 1015.10 1016.00 1016.82 1017.80 1018.96 1019.51 1020.18 1020.54 1021.46 1022.78 1023.46 1024.17 1024.47 1024.93 1025.60 1026.32 1027.62 1028.60 1029.79 1030.34 1030.21 1030.62 1031.07 1031.75 1032.47 1033.08 1033.60 1033.92 1033.46 1033.25 1032.92 1032.93 1032.69 1032.45 1029.34 1028.21 1028.78 1029.30 1029.78 1030.16 1030.81
1014.06 1014.00 1013.83 1013.54 1013.79 1014.34 1015.17 1016.02 1016.95 1017.61 1018.73 1019.48 1020.37 1020.35 1021.04 1022.25 1023.36 1023.58 1024.81 1025.39 1026.13 1027.03 1028.73 1029.91 1030.83 1031.00 1031.09 1031.00 1031.62 1032.26 1032.50 1032.64 1033.94 1034.36 1034.22 1034.02 1033.38 1032.84 1032.70 1032.58 1030.99 1029.69 1029.95 1030.62 1031.09 1032.20 1032.53
1014.04 1013.99 1014.06 1014.00 1014.42 1015.05 1015.63 1016.23 1016.78 1017.67 1018.38 1019.39 1020.50 1020.62 1021.19 1022.61 1023.95 1024.52 1025.30 1025.58 1026.16 1027.42 1029.05 1030.36 1031.00 1031.48 1031.45 1031.33 1031.71 1031.91 1032.09 1032.17 1033.25 1034.02 1034.49 1034.26 1033.72 1032.51 1032.38 1032.20 1030.58 1030.33 1031.15 1031.80 1033.23 1034.00 1033.99
1013.82 1014.32 1014.45 1014.74 1014.89 1015.02 1015.61 1016.08 1016.77 1017.53 1018.26 1019.07 1021.24 1021.34 1021.32 1022.94 1025.17 1025.65 1025.96 1026.46 1027.07 1027.73 1028.58 1030.35 1031.15 1031.45 1031.60 1031.32 1030.97 1030.74 1031.12 1031.15 1031.94 1032.31 1032.54 1032.32 1032.38 1032.29 1032.44 1032.90 1032.08 1031.45 1032.27 1033.21 1033.91 1034.20 1034.62
1013.93 1014.22 1014.63 1014.75 1014.70 1014.95 1015.48 1015.90 1016.47 1017.19 1017.90 1018.96 1021.00 1021.61 1022.04 1023.48 1026.24 1026.98 1027.42 1027.81 1028.05 1027.93 1028.01 1029.21 1029.05 1028.94 1028.99 1029.53 1029.60 1029.37 1029.83 1030.40 1031.00 1031.63 1031.38 1031.25 1029.92 1030.41 1031.00 1031.01 1031.62 1032.41 1032.98 1033.66 1034.06 1034.38 1034.99
Wind_Speed
3 4 4 5 5 6 7 8 9 9 10 10 9 8 7 8 8 9 8 7 5 3 4 7 7 7 2 7 2 7 20 15 8 4 4 3 1 2 6 7 5 6 4 7 7 12 9
3 3 4 4 5 6 7 7 8 9 9 9 8 8 6 5 5 4 5 5 4 3 6 7 8 4 2 5 3 8 9 8 6 4 6 6 2 2 7 5 4 4 8 8 4 6 6
5 3 3 3 4 5 5 6 7 8 8 9 8 7 6 3 3 3 3 6 6 5 6 7 7 3 8 2 4 8 9 5 6 3 3 3 3 5 4 6 5 7 7 4 3 4 4
6 5 4 3 3 3 4 5 6 7 8 8 8 7 6 3 1 0 4 7 8 9 9 7 6 5 4 3 4 7 9 6 10 4 2 4 5 8 6 7 5 5 4 3 3 5 4
7 6 5 4 3 2 3 4 5 6 7 6 7 7 5 4 3 4 7 8 8 10 10 7 4 5 2 3 5 7 5 5 8 5 5 3 6 5 4 5 4 1 3 4 2 8 5
8 7 5 4 3 2 2 2 4 5 6 6 7 6 5 4 4 5 8 6 8 8 6 1 3 4 6 4 4 5 5 4 3 5 6 8 7 4 4 4 5 5 4 3 5 6 5
9 7 6 5 5 3 2 2 3 5 6 6 7 4 5 4 4 6 6 4 5 5 9 3 3 3 2 6 2 6 5 8 4 7 3 5 5 5 5 2 2 1 2 1 3 1 2
11 9 8 7 6 5 3 2 2 3 5 5 6 2 5 5 5 6 3 5 3 3 5 5 3 4 2 3 4 8 9 4 4 2 2 6 2 2 2 2 2 2 1 1 2 1 1
14 11 10 9 8 7 5 4 2 2 4 5 5 3 5 6 7 4 4 3 2 1 4 3 3 3 3 5 3 7 7 3 5 4 4 4 2 2 2 2 3 2 3 4 4 2 4
14 13 11 11 10 9 8 6 3 2 2 3 5 5 7 8 5 1 2 3 2 2 4 3 3 3 3 3 4 2 3 1 6 4 3 3 2 2 3 2 2 2 1 2 3 4 5
15 13 12 12 11 11 9 8 5 3 2 2 3 5 6 7 3 3 2 4 2 4 4 2 2 3 3 4 1 5 1 2 3 3 4 2 4 2 2 1 1 1 2 2 2 2 5
17 16 15 13 12 11 10 9 6 4 2 3 4 4 2 4 3 2 4 4 3 5 4 1 1 1 2 2 3 4 4 5 2 4 5 1 1 1 3 3 3 6 4 4 4 2 2
18 17 17 15 14 13 12 10 8 6 3 5 5 12 5 2 1 5 3 3 4 3 1 1 1 1 0 1 2 2 2 1 4 3 2 2 1 2 3 4 4 3 4 4 5 2 8
19 19 18 18 17 16 14 12 11 8 6 5 5 6 6 3 4 4 3 5 2 2 1 2 2 1 1 3 2 2 2 3 3 3 3 4 4 5 3 1 3 3 2 5 6 4 6
19 19 19 19 19 17 16 14 13 10 8 7 3 3 3 5 6 2 5 3 4 3 4 5 2 2 0 1 1 2 3 3 3 7 7 4 3 1 4 2 1 4 6 1 1 2 3
16 19 20 20 21 20 19 16 13 12 9 9 3 3 2 6 6 3 4 4 3 2 5 2 1 2 2 2 1 1 3 3 2 1 1 2 3 2 0 1 1 1 3 4 1 4 7
7 5 10 20 21 22 21 20 17 14 12 7 3 3 3 6 2 5 3 6 3 2 1 3 2 1 3 3 3 3 3 1 1 1 2 4 4 1 1 9 9 4 3 2 0 5 5
9 8 4 5 18 20 22 22 19 16 14 6 1 2 4 4 3 1 2 3 3 3 1 2 3 3 3 6 5 4 5 3 1 3 5 3 5 5 12 1 3 3 4 6 5 7 4
10 7 6 5 7 19 22 24 22 21 14 5 3 2 3 2 3 2 1 1 1 2 2 3 4 3 2 6 1 6 4 2 3 2 5 4 2 4 6 5 3 5 5 3 3 3 7
9 6 6 6 4 17 24 25 24 23 14 6 4 3 3 3 2 3 3 3 3 3 1 1 3 3 2 2 2 4 4 0 4 1 2 2 2 9 12 4 5 5 6 13 12 5 6
7 7 6 7 5 11 27 27 27 24 15 4 3 2 3 4 4 4 2 1 3 2 2 2 1 6 6 3 3 6 2 1 1 4 2 2 6 3 6 5 6 11 7 12 19 22 14
4 4 6 8 9 13 24 28 26 25 14 4 6 5 1 2 3 6 4 4 6 4 6 4 4 3 6 7 8 4 6 3 7 3 4 2 5 2 6 5 11 19 13 19 22 22 26
4 3 5 6 10 18 25 26 27 26 12 3 2 2 4 6 4 5 6 6 7 7 2 1 6 4 4 11 3 4 1 2 3 9 8 5 3 1 7 3 7 12 15 22 17 14 18
3 0 5 3 19 24 27 28 27 27 8 3 3 4 4 3 4 5 6 7 7 8 2 2 1 6 1 5 5 4 5 5 6 4 1 6 5 3 4 4 6 6 3 4 13 5 5
5 3 6 4 20 25 29 30 29 28 10 3 3 3 4 4 3 4 8 5 4 3 3 3 2 2 4 2 2 6 4 5 3 3 1 2 4 3 4 4 11 7 2 4 6 6 1
6 5 6 8 11 22 27 27 26 25 13 4 1 1 3 6 7 5 5 4 4 4 3 3 3 2 2 1 2 4 5 3 4 4 3 2 3 5 3 5 9 6 3 1 2 6 1
7 6 6 7 12 18 20 24 26 25 19 4 2 2 4 3 2 2 4 5 6 4 3 4 3 1 2 2 3 5 6 4 4 6 5 3 2 13 11 8 10 2 2 0 6 5 2
8 7 8 7 7 14 21 23 23 23 22 6 1 3 3 3 2 3 2 4 3 2 6 5 4 1 2 4 4 5 4 6 2 4 8 9 9 5 5 6 13 1 2 6 3 2 3
9 8 7 8 7 7 11 23 23 22 24 10 3 2 4 6 4 3 4 3 3 3 5 6 1 5 6 3 3 3 3 3 4 5 2 4 8 7 11 7 1 2 2 2 2 3 2
Wind_Direction
120 118 98 78 68 66 56 45 37 38 39 39 43 48 54 60 67 87 95 91 91 41 12 354 347 341 50 48 17 303 324 322 326 347 29 12 63 112 119 115 99 91 141 59 91 81 66
141 137 116 91 70 58 51 47 39 38 39 38 39 41 42 61 66 65 80 38 18 348 337 341 338 350 58 77 296 313 320 329 358 28 19 29 10 74 87 64 69 109 105 134 98 109 120
164 157 140 109 83 67 55 46 36 35 39 38 37 32 28 35 63 67 9 348 349 339 340 345 356 68 55 144 319 319 348 344 347 18 41 335 275 69 106 91 141 132 88 81 168 151 130
175 168 159 128 90 71 64 49 40 36 37 34 32 30 18 3 330 65 334 324 321 318 312 331 352 71 85 299 313 359 345 332 353 4 11 346 33 94 81 121 79 75 73 137 203 146 175
188 180 169 154 127 89 56 50 39 33 32 31 26 23 20 5 346 302 317 317 311 314 303 313 56 87 62 0 24 321 25 339 306 335 5 1 64 90 54 85 49 292 203 200 233 203 147
200 190 177 175 161 142 104 56 34 31 22 17 15 20 31 22 359 341 319 294 314 1 345 334 52 56 10 340 323 336 333 357 360 338 10 39 47 70 50 75 214 205 218 201 207 210 168
202 202 190 187 188 182 150 78 35 25 21 13 9 26 47 39 12 355 11 21 23 358 37 74 316 93 359 311 27 1 351 340 32 43 66 9 84 189 198 169 173 152 273 229 351 18 185
199 203 202 198 195 197 182 136 59 29 21 18 7 46 39 22 7 343 94 77 104 171 75 35 61 64 51 337 8 352 1 56 34 72 28 23 231 194 141 123 113 105 137 158 357 354 302
196 202 205 207 204 199 193 183 160 63 26 25 25 40 2 349 338 42 74 92 74 66 83 10 49 56 321 47 58 322 10 329 56 58 10 140 348 339 29 39 114 46 180 178 178 300 263
197 193 205 213 209 206 197 195 187 129 48 43 51 26 3 332 59 299 60 308 42 112 82 350 357 359 357 115 43 301 360 78 33 136 102 90 315 109 72 55 65 268 357 96 97 71 233
193 197 196 212 211 212 202 199 199 158 101 65 10 353 357 33 150 69 327 318 332 67 2 7 351 297 30 64 28 1 295 25 104 112 108 213 161 136 143 86 88 222 62 63 39 38 17
197 198 200 203 209 210 208 201 200 169 123 86 50 1 30 33 61 349 326 336 50 46 268 121 20 23 65 39 23 326 16 34 107 83 34 85 290 52 122 81 101 140 77 46 53 74 320
202 197 199 200 202 206 202 197 190 181 145 122 80 48 60 46 113 317 360 42 26 136 74 109 172 97 318 59 23 31 16 335 174 90 194 352 240 14 116 86 10 79 92 318 326 359 237
205 202 200 198 202 196 201 187 190 180 155 141 82 79 60 63 322 351 71 44 271 51 184 225 117 115 113 21 29 354 2 289 224 110 124 174 299 178 175 220 183 191 182 177 250 244 277
206 203 203 200 199 193 193 185 185 168 160 152 98 50 52 342 342 42 76 67 231 197 148 149 123 75 31 103 10 8 228 233 224 192 168 132 253 70 33 352 117 173 209 111 67 211 1
225 210 205 203 197 191 182 180 181 164 168 149 99 70 7 326 338 55 80 241 202 119 129 134 226 179 239 207 193 155 207 194 179 72 154 204 349 353 2 313 354 191 166 98 89 282 273
160 120 208 209 200 185 178 173 179 163 164 145 68 79 323 331 351 45 171 227 154 73 351 168 179 216 238 206 198 224 252 326 127 133 73 126 118 303 76 206 182 155 212 159 346 184 213
173 167 139 201 190 182 174 168 168 154 130 58 40 104 312 339 69 30 177 223 104 169 72 117 117 157 189 156 186 250 239 224 135 174 169 173 149 212 211 38 1 317 226 163 189 209 240
177 171 185 169 185 178 172 163 161 154 144 136 112 90 321 333 159 212 270 41 245 138 236 172 180 196 191 182 236 209 233 91 268 188 167 196 253 338 313 4 355 225 207 173 75 46 203
165 170 222 173 207 185 169 163 164 161 150 96 120 116 24 29 35 133 182 202 206 30 124 154 119 78 103 230 272 257 245 99 7 201 165 64 168 191 243 211 130 207 210 206 202 197 229
165 192 198 203 229 195 167 165 163 162 149 102 94 153 122 171 235 171 85 106 174 167 4 213 276 196 162 219 278 232 185 357 240 234 76 132 227 219 265 234 211 230 195 201 217 227 220
138 192 226 233 242 185 167 160 161 156 128 94 137 146 50 109 98 107 179 217 197 164 166 242 204 197 188 201 199 225 144 204 212 74 143 2 269 75 286 268 251 265 232 228 225 231 244
149 197 244 253 198 167 156 160 158 156 150 129 164 52 109 146 142 143 201 195 206 160 189 155 173 120 220 247 139 156 118 57 207 160 178 165 188 117 269 332 327 287 237 219 234 230 233
142 80 342 325 156 154 154 160 162 169 165 126 144 130 118 162 176 203 174 188 191 204 206 141 85 142 158 102 106 55 46 34 37 12 360 155 148 180 279 3 260 260 197 202 227 263 305
148 88 32 98 155 160 165 166 169 174 148 95 149 140 146 146 174 171 188 173 114 45 113 130 66 351 133 91 50 351 333 2 341 12 326 358 151 223 246 214 303 301 294 148 162 278 236
137 120 90 97 143 163 168 170 171 172 157 95 115 106 108 121 219 121 151 173 171 141 130 106 23 64 308 152 126 213 233 228 279 328 15 346 2 209 152 235 248 239 267 179 92 287 78
136 126 112 107 158 158 167 170 172 179 175 112 102 336 96 135 112 99 175 176 130 107 101 140 162 150 25 143 186 199 246 179 234 186 174 139 217 222 228 247 278 256 269 72 96 241 129
149 150 151 152 152 171 175 180 184 188 171 121 127 336 117 95 73 10 7 142 114 153 158 149 112 272 100 179 185 221 192 229 142 178 180 174 167 198 198 231 269 70 24 177 169 348 141
165 162 171 177 176 181 192 193 195 196 171 127 100 29 40 77 98 55 64 46 14 354 125 183 169 154 164 149 207 202 222 178 182 254 354 244 200 185 200 217 40 341 92 138 152 129 164